| time (UTC) | temp C | wind direction | speed KPH | gust KPH | rain 1hr cm | rain 24hr cm | rain mn cm | humidity % | barometer mb |
| 20260506114003 | 23 | 172 | 1.6 | 6.4 | 0.00 | 0.00 | 0.00 | 90 | 1009.8 |
| 20260506113503 | 23 | 172 | 1.6 | 6.4 | 0.00 | 0.00 | 0.00 | 90 | 1009.8 |
| 20260506113025 | 24 | 172 | 1.6 | 6.4 | 0.00 | 0.00 | 0.00 | 90 | 1009.8 |
| 20260506112504 | 24 | 172 | 1.6 | 3.2 | 0.00 | 0.00 | 0.00 | 90 | 1009.7 |
| 20260506112003 | 23 | 172 | 1.6 | 3.2 | 0.00 | 0.00 | 0.00 | 90 | 1009.8 |
| 20260506111524 | 24 | 172 | 1.6 | 6.4 | 0.00 | 0.00 | 0.00 | 90 | 1009.8 |
| 20260506111004 | 24 | 172 | 3.2 | 8.0 | 0.00 | 0.00 | 0.00 | 90 | 1009.7 |
| 20260506110525 | 24 | 172 | 3.2 | 9.7 | 0.00 | 0.00 | 0.00 | 90 | 1009.6 |
| 20260506110004 | 24 | 172 | 1.6 | 9.7 | 0.00 | 0.00 | 0.00 | 90 | 1009.6 |
| 20260506105504 | 24 | 172 | 3.2 | 9.7 | 0.00 | 0.00 | 0.00 | 91 | 1009.6 |
| 20260506105004 | 24 | 172 | 3.2 | 9.7 | 0.00 | 0.00 | 0.00 | 90 | 1009.5 |
| 20260506104504 | 24 | 172 | 3.2 | 11.3 | 0.00 | 0.00 | 0.00 | 91 | 1009.4 |
| 20260506104025 | 24 | 172 | 6.4 | 11.3 | 0.00 | 0.00 | 0.00 | 91 | 1009.5 |
| 20260506103525 | 24 | 172 | 3.2 | 11.3 | 0.00 | 0.00 | 0.00 | 91 | 1009.4 |
| 20260506103025 | 24 | 172 | 6.4 | 11.3 | 0.00 | 0.00 | 0.00 | 91 | 1009.2 |
| 20260506102525 | 24 | 171 | 6.4 | 12.9 | 0.00 | 0.00 | 0.00 | 90 | 1009.2 |
| 20260506102003 | 24 | 174 | 6.4 | 12.9 | 0.00 | 0.00 | 0.00 | 91 | 1009.2 |
| 20260506101503 | 24 | 179 | 8.0 | 12.9 | 0.00 | 0.00 | 0.00 | 91 | 1009.1 |
| 20260506101004 | 24 | 180 | 8.0 | 12.9 | 0.00 | 0.00 | 0.00 | 91 | 1009.0 |
| 20260506100525 | 24 | 181 | 8.0 | 12.9 | 0.00 | 0.00 | 0.00 | 91 | 1009.0 |
| 20260506100025 | 24 | 172 | 8.0 | 16.1 | 0.00 | 0.00 | 0.00 | 91 | 1009.0 |
| 20260506095503 | 24 | 160 | 8.0 | 16.1 | 0.00 | 0.00 | 0.00 | 91 | 1009.0 |
| 20260506095004 | 24 | 173 | 8.0 | 12.9 | 0.00 | 0.00 | 0.00 | 91 | 1009.0 |
| 20260506094503 | 24 | 174 | 8.0 | 12.9 | 0.00 | 0.00 | 0.00 | 91 | 1009.0 |
| 20260506094004 | 24 | 168 | 8.0 | 16.1 | 0.00 | 0.00 | 0.00 | 91 | 1008.9 |
| 20260506093503 | 24 | 173 | 8.0 | 16.1 | 0.00 | 0.00 | 0.00 | 91 | 1008.8 |
| 20260506093003 | 24 | 174 | 8.0 | 16.1 | 0.00 | 0.00 | 0.00 | 91 | 1008.8 |
| 20260506092503 | 24 | 170 | 8.0 | 16.1 | 0.00 | 0.00 | 0.00 | 91 | 1008.7 |
| 20260506092004 | 24 | 168 | 8.0 | 12.9 | 0.00 | 0.00 | 0.00 | 91 | 1008.7 |
| 20260506091524 | 24 | 168 | 8.0 | 16.1 | 0.00 | 0.00 | 0.00 | 91 | 1008.7 |
| 20260506091004 | 24 | 167 | 8.0 | 17.7 | 0.00 | 0.00 | 0.00 | 90 | 1008.7 |
| 20260506090503 | 24 | 166 | 8.0 | 17.7 | 0.00 | 0.00 | 0.00 | 90 | 1008.6 |
| 20260506090003 | 24 | 172 | 9.7 | 20.9 | 0.00 | 0.00 | 0.00 | 90 | 1008.7 |
| 20260506085524 | 24 | 177 | 8.0 | 20.9 | 0.00 | 0.00 | 0.00 | 90 | 1008.7 |
| 20260506085004 | 24 | 173 | 8.0 | 16.1 | 0.00 | 0.00 | 0.00 | 90 | 1008.6 |
| 20260506084525 | 24 | 169 | 9.7 | 17.7 | 0.00 | 0.00 | 0.00 | 90 | 1008.6 |
| 20260506084024 | 24 | 165 | 9.7 | 17.7 | 0.00 | 0.00 | 0.00 | 90 | 1008.7 |
| 20260506083504 | 24 | 164 | 8.0 | 17.7 | 0.00 | 0.00 | 0.00 | 90 | 1008.6 |
| 20260506083003 | 24 | 172 | 9.7 | 17.7 | 0.00 | 0.00 | 0.00 | 90 | 1008.7 |
| 20260506082504 | 24 | 172 | 9.7 | 19.3 | 0.00 | 0.00 | 0.00 | 90 | 1008.7 |
| 20260506082004 | 24 | 160 | 8.0 | 19.3 | 0.00 | 0.00 | 0.00 | 90 | 1008.6 |
| 20260506081503 | 24 | 156 | 8.0 | 17.7 | 0.00 | 0.00 | 0.00 | 89 | 1008.6 |
| 20260506081003 | 24 | 168 | 9.7 | 17.7 | 0.00 | 0.00 | 0.00 | 89 | 1008.7 |
| 20260506080503 | 24 | 168 | 11.3 | 17.7 | 0.00 | 0.00 | 0.00 | 89 | 1008.6 |
| 20260506073503 | 24 | 169 | 9.7 | 19.3 | 0.00 | 0.00 | 0.00 | 89 | 1009.0 |
| 20260506073003 | 24 | 166 | 9.7 | 22.5 | 0.00 | 0.00 | 0.00 | 89 | 1009.1 |
| 20260506072524 | 24 | 164 | 11.3 | 22.5 | 0.00 | 0.00 | 0.00 | 89 | 1009.1 |
| 20260506072003 | 24 | 166 | 11.3 | 22.5 | 0.00 | 0.00 | 0.00 | 89 | 1009.2 |
| 20260506071503 | 24 | 169 | 11.3 | 22.5 | 0.00 | 0.00 | 0.00 | 89 | 1009.2 |
| 20260506071024 | 24 | 168 | 9.7 | 20.9 | 0.00 | 0.00 | 0.00 | 89 | 1009.3 |
| 20260506070503 | 24 | 169 | 9.7 | 19.3 | 0.00 | 0.00 | 0.00 | 89 | 1009.4 |
| 20260506062503 | 24 | 164 | 8.0 | 25.7 | 0.00 | 0.00 | 0.00 | 88 | 1009.3 |
| 20260506062003 | 24 | 170 | 8.0 | 17.7 | 0.00 | 0.00 | 0.00 | 88 | 1009.3 |
| 20260506061503 | 24 | 162 | 9.7 | 17.7 | 0.00 | 0.00 | 0.00 | 88 | 1009.2 |
| 20260506061003 | 24 | 163 | 9.7 | 16.1 | 0.00 | 0.00 | 0.00 | 88 | 1009.2 |
| 20260506060504 | 24 | 162 | 9.7 | 17.7 | 0.00 | 0.00 | 0.00 | 88 | 1009.2 |
| 20260506051003 | 25 | 166 | 11.3 | 32.2 | 0.00 | 0.00 | 0.00 | 87 | 1009.4 |
| 20260506050503 | 25 | 167 | 11.3 | 32.2 | 0.00 | 0.00 | 0.00 | 87 | 1009.4 |
| 20260506045003 | 25 | 164 | 9.7 | 22.5 | 0.00 | 0.00 | 0.00 | 86 | 1009.4 |
| 20260506044503 | 25 | 164 | 9.7 | 22.5 | 0.00 | 0.00 | 0.00 | 86 | 1009.5 |
| 20260506044003 | 25 | 162 | 9.7 | 22.5 | 0.00 | 0.00 | 0.00 | 86 | 1009.5 |
| 20260506043503 | 25 | 149 | 8.0 | 17.7 | 0.00 | 0.00 | 0.00 | 87 | 1009.5 |
| 20260506043003 | 25 | 150 | 8.0 | 17.7 | 0.00 | 0.00 | 0.00 | 87 | 1009.6 |
| 20260506042503 | 25 | 161 | 6.4 | 11.3 | 0.00 | 0.00 | 0.00 | 87 | 1009.4 |
| 20260506042024 | 25 | 155 | 8.0 | 16.1 | 0.00 | 0.00 | 0.00 | 87 | 1009.4 |
| 20260506041503 | 25 | 157 | 8.0 | 17.7 | 0.00 | 0.00 | 0.00 | 87 | 1009.3 |
| 20260506041003 | 25 | 153 | 8.0 | 17.7 | 0.00 | 0.00 | 0.00 | 87 | 1009.3 |
| 20260506040503 | 25 | 148 | 8.0 | 16.1 | 0.00 | 0.00 | 0.00 | 86 | 1009.3 |
| 20260506040003 | 25 | 148 | 8.0 | 16.1 | 0.00 | 0.00 | 0.00 | 86 | 1009.1 |
| 20260506035503 | 25 | 136 | 9.7 | 17.7 | 0.00 | 0.00 | 0.00 | 86 | 1008.9 |
| 20260506035024 | 25 | 144 | 9.7 | 20.9 | 0.00 | 0.00 | 0.00 | 86 | 1008.9 |
| 20260506034503 | 25 | 161 | 8.0 | 20.9 | 0.00 | 0.00 | 0.00 | 86 | 1008.9 |
| 20260506034004 | 25 | 141 | 9.7 | 17.7 | 0.00 | 0.00 | 0.00 | 86 | 1008.8 |
| 20260506033652 | 25 | 138 | 9.7 | 16.1 | 0.00 | 0.00 | 0.00 | 86 | 1008.8 |
| 20260505153003 | 22 | 194 | 11.3 | 22.5 | 0.00 | 0.00 | 0.00 | 89 | 1010.1 |
| 20260505152524 | 22 | 193 | 11.3 | 27.4 | 0.00 | 0.00 | 0.00 | 89 | 1010.0 |
| 20260505152024 | 22 | 196 | 11.3 | 27.4 | 0.00 | 0.00 | 0.00 | 90 | 1010.2 |
| 20260505151524 | 22 | 187 | 9.7 | 22.5 | 0.00 | 0.00 | 0.00 | 90 | 1010.0 |
| 20260505151003 | 22 | 174 | 8.0 | 22.5 | 0.00 | 0.00 | 0.00 | 90 | 1009.9 |
| 20260505150505 | 22 | 179 | 9.7 | 22.5 | 0.00 | 0.00 | 0.00 | 90 | 1009.9 |
| 20260505140503 | 22 | 190 | 11.3 | 25.7 | 0.00 | 0.00 | 0.00 | 90 | 1009.7 |
| 20260505125025 | 21 | 181 | 12.9 | 37.0 | 0.00 | 0.00 | 0.00 | 90 | 1008.9 |
| 20260505124504 | 21 | 180 | 12.9 | 27.4 | 0.00 | 0.00 | 0.00 | 90 | 1008.9 |
| 20260505124004 | 21 | 172 | 11.3 | 27.4 | 0.00 | 0.00 | 0.00 | 90 | 1008.8 |
| 20260505123504 | 21 | 172 | 12.9 | 27.4 | 0.00 | 0.00 | 0.00 | 90 | 1008.8 |
| 20260505123004 | 21 | 173 | 12.9 | 29.0 | 0.00 | 0.00 | 0.00 | 90 | 1008.7 |
| 20260505122504 | 21 | 173 | 12.9 | 29.0 | 0.00 | 0.00 | 0.00 | 90 | 1008.7 |
| 20260505122004 | 21 | 170 | 11.3 | 29.0 | 0.00 | 0.00 | 0.00 | 90 | 1008.6 |
| 20260505121504 | 21 | 178 | 12.9 | 32.2 | 0.00 | 0.00 | 0.00 | 90 | 1008.6 |
| 20260505121004 | 21 | 182 | 12.9 | 32.2 | 0.00 | 0.00 | 0.00 | 90 | 1008.6 |
| 20260505120504 | 21 | 179 | 11.3 | 22.5 | 0.00 | 0.00 | 0.00 | 90 | 1008.6 |
| 20260505120004 | 21 | 179 | 12.9 | 30.6 | 0.00 | 0.00 | 0.00 | 90 | 1008.5 |
| 20260505115504 | 21 | 180 | 12.9 | 35.4 | 0.00 | 0.00 | 0.00 | 90 | 1008.5 |
| 20260505115004 | 21 | 177 | 11.3 | 35.4 | 0.00 | 0.00 | 0.00 | 90 | 1008.5 |
| 20260505114504 | 21 | 175 | 11.3 | 22.5 | 0.00 | 0.00 | 0.00 | 90 | 1008.4 |